Lille, France

7:06 AM CEST on June 26, 2017 (GMT +0200)
Lesquin

Weather History for LFQQ - June, 2013

Change the Weather History Date:

Sunday, June 23, 2013

  Actual Average Record
Temperature  
Mean Temperature 58 °F -  
Max Temperature 64 °F 70 °F 87 °F (2005)
Min Temperature 53 °F 54 °F 46 °F (2006)
Degree Days  
Heating Degree Days 6    
Growing Degree Days 8 (Base 50)    
Moisture  
Dew Point 50 °F    
Average Humidity 76    
Maximum Humidity 94    
Minimum Humidity 56    
Precipitation  
Precipitation 0.08 in - - ()
Sea Level Pressure  
Sea Level Pressure 29.88 in    
Wind  
Wind Speed 16 mph ()    
Max Wind Speed 24 mph    
Max Gust Speed 32 mph    
Visibility 6.4 miles    
Events Rain    
Averages and records for this station are not official NWS values.
T = Trace of Precipitation, MM = Missing Value Source: Averaged Metar Reports

Daily Weather History Graph

Daily Weather History Graph

Search for Another Location

Airport or City:

Trip Planner

Search our weather history database for the weather conditions in past years. The results will help you decide how hot, cold, wet, or windy it might be!

Date:

Astronomy

Jun. 23, 2013 Rise Set
Actual Time 5:35 AM CEST 10:03 PM CEST
Civil Twilight 4:50 AM CEST 10:49 PM CEST
Nautical Twilight 3:41 AM CEST 11:58 PM CEST
Astronomical Twilight 2:22 AM CEST 1:17 AM CEST
Moon 9:52 PM CEST (6/23) 5:43 AM CEST (6/23)
Length of Visible Light 17h 59m
Length of Day
16h 27m
Full, 100% of the Moon is Illuminated
Jun 23
Full
Jun 23
Full
Jun 30
Last Quarter
Jul 8
New
Jul 16
First Quarter

Hourly Weather History & Observations

Time (CEST) Temp. Dew Point Humidity Pressure Visibility Wind Dir Wind Speed Gust Speed Precip Events Conditions
12:00 AM 55.4 °F 48.2 °F 77% 29.83 in 6.2 mi WSW 12.7 mph - N/A   Partly Cloudy
12:30 AM 55.4 °F 48.2 °F 77% 29.83 in 6.2 mi WSW 10.4 mph - N/A   Scattered Clouds
1:00 AM 57.2 °F 48.2 °F 72% 29.83 in - WSW 15.0 mph - N/A   Clear
2:00 AM 56 °F 47 °F 65% 29.83 in 37 mi WSW 15.0 mph - -   Clear
2:00 AM 57.2 °F 48.2 °F 72% 29.83 in 6.2 mi WSW 15.0 mph - N/A   Mostly Cloudy
2:30 AM 55.4 °F 48.2 °F 77% 29.83 in 6.2 mi SW 13.8 mph - N/A   Overcast
3:00 AM 55.4 °F 48.2 °F 77% 29.83 in 6.2 mi SW 13.8 mph - N/A   Overcast
3:30 AM 55.4 °F 48.2 °F 77% 29.80 in 6.2 mi SW 15.0 mph - N/A   Mostly Cloudy
4:00 AM 55.4 °F 48.2 °F 77% 29.80 in 6.2 mi SW 15.0 mph - N/A   Mostly Cloudy
4:30 AM 55.4 °F 50.0 °F 82% 29.80 in 6.2 mi SW 19.6 mph 32.2 mph N/A   Mostly Cloudy
5:00 AM 53.6 °F 51.8 °F 94% 29.80 in 4.3 mi SW 18.4 mph - N/A Rain Light Rain Showers
5:30 AM 55.4 °F 50.0 °F 82% 29.80 in 6.2 mi SW 17.3 mph - N/A   Overcast
6:00 AM 55.4 °F 50.0 °F 82% 29.80 in 6.2 mi SW 18.4 mph - N/A   Overcast
6:30 AM 55.4 °F 50.0 °F 82% 29.80 in 6.2 mi SW 17.3 mph - N/A   Scattered Clouds
7:00 AM 55.4 °F 50.0 °F 82% 29.80 in 6.2 mi SW 16.1 mph - N/A   Mostly Cloudy
7:30 AM 55.4 °F 51.8 °F 88% 29.83 in 6.2 mi SW 19.6 mph - N/A   Mostly Cloudy
8:00 AM 55 °F 52 °F 86% 29.83 in 25 mi SW 18.4 mph - - Rain Light Rain Showers
8:00 AM 55.4 °F 51.8 °F 88% 29.83 in 6.2 mi SW 18.4 mph - N/A   Mostly Cloudy
8:30 AM 55.4 °F 51.8 °F 88% 29.83 in 6.2 mi SW 18.4 mph - N/A   Mostly Cloudy
9:00 AM 55.4 °F 51.8 °F 88% 29.83 in 5.0 mi SW 17.3 mph - N/A Rain Light Rain
9:30 AM 55.4 °F 53.6 °F 94% 29.83 in 2.5 mi SW 17.3 mph - N/A Rain Light Rain
10:00 AM 55.4 °F 53.6 °F 94% 29.83 in 6.2 mi SW 16.1 mph - N/A Rain Light Rain
10:30 AM 55.4 °F 53.6 °F 94% 29.86 in 6.2 mi SW 17.3 mph - N/A Rain Light Rain
11:00 AM 55.4 °F 53.6 °F 94% 29.86 in 6.2 mi SW 13.8 mph - N/A Rain Light Rain
11:30 AM 57.2 °F 55.4 °F 94% 29.86 in 2.5 mi SW 16.1 mph - N/A Rain Light Rain
12:00 PM 57.2 °F 55.4 °F 94% 29.86 in 6.2 mi SW 16.1 mph - N/A Rain Light Rain
12:30 PM 59.0 °F 53.6 °F 82% 29.86 in 6.2 mi WSW 17.3 mph - N/A Rain Light Rain
1:00 PM 60.8 °F 53.6 °F 77% 29.89 in 6.2 mi WSW 18.4 mph - N/A Rain Light Rain
1:30 PM 60.8 °F 51.8 °F 72% 29.89 in 6.2 mi WSW 19.6 mph - N/A   Mostly Cloudy
2:00 PM 62 °F 52 °F 62% 29.90 in 12 mi West 23.0 mph - -   Partly Cloudy
2:00 PM 62.6 °F 51.8 °F 68% 29.89 in 6.2 mi West 24.2 mph - N/A   Mostly Cloudy
2:30 PM 62.6 °F 51.8 °F 68% 29.89 in 6.2 mi West 21.9 mph - N/A   Mostly Cloudy
3:00 PM 62.6 °F 50.0 °F 63% 29.89 in 6.2 mi West 23.0 mph - N/A   Scattered Clouds
3:30 PM 64.4 °F 48.2 °F 56% 29.89 in 6.2 mi West 24.2 mph - N/A   Scattered Clouds
4:00 PM 62.6 °F 48.2 °F 59% 29.92 in 6.2 mi WSW 23.0 mph - N/A   Scattered Clouds
4:30 PM 60.8 °F 50.0 °F 68% 29.92 in 6.2 mi West 24.2 mph - N/A   Mostly Cloudy
5:00 PM 62.6 °F 48.2 °F 59% 29.92 in 6.2 mi West 23.0 mph - N/A   Mostly Cloudy
5:30 PM 62.6 °F 48.2 °F 59% 29.92 in 6.2 mi West 21.9 mph - N/A   Mostly Cloudy
6:00 PM 62.6 °F 48.2 °F 59% 29.92 in 6.2 mi West 23.0 mph - N/A   Mostly Cloudy
6:30 PM 62.6 °F 50.0 °F 63% 29.92 in 6.2 mi West 23.0 mph - N/A   Mostly Cloudy
7:00 PM 60.8 °F 48.2 °F 63% 29.95 in 6.2 mi West 21.9 mph - N/A   Mostly Cloudy
7:30 PM 59.0 °F 48.2 °F 67% 29.95 in 6.2 mi West 24.2 mph - N/A   Mostly Cloudy
8:00 PM 59 °F 49 °F 60% 29.96 in 19 mi West 19.6 mph - -   Partly Cloudy
8:00 PM 59.0 °F 48.2 °F 67% 29.95 in 6.2 mi West 19.6 mph - N/A   Mostly Cloudy
8:30 PM 59.0 °F 48.2 °F 67% 29.95 in 6.2 mi West 17.3 mph - N/A   Mostly Cloudy
9:00 PM 57.2 °F 48.2 °F 72% 29.95 in 6.2 mi West 16.1 mph - N/A   Mostly Cloudy
9:30 PM 57.2 °F 50.0 °F 77% 29.98 in 6.2 mi West 16.1 mph - N/A   Mostly Cloudy
10:00 PM 57.2 °F 48.2 °F 72% 29.98 in 6.2 mi West 19.6 mph - N/A   Mostly Cloudy
10:30 PM 57.2 °F 50.0 °F 77% 29.98 in 6.2 mi West 17.3 mph - N/A   Mostly Cloudy
11:00 PM 55.4 °F 50.0 °F 82% 29.98 in 6.2 mi West 16.1 mph - N/A   Mostly Cloudy
11:30 PM 55.4 °F 50.0 °F 82% 29.98 in 6.2 mi West 13.8 mph - N/A   Mostly Cloudy